IVALO current weather conditions

sailwx.info

Air temperature -11.0° C
Visibility: greater than 5.4 NM
Dewpoint -12.0° C
Present weather: Light snow grains.

Last reported at 2014-Dec-18 23:50 UTC.
Time now 2014-Dec-19 01:35 UTC

Location: N 68°37' E 027°25'.
View on Google Maps.

See reports from other nearby stations

  
Tides and Currents Weather Stations Pressure Air Temp Water Temp Dewpoint Dewpoint Depression Visibility Wind Speed Wind Dir Waves Ship Positions
date/time (UTC)wind fromknots sea level pressurealtimeterstation pressurevisibilityair tempwater tempwave heightnotes
2014-Dec-19 00:20 270 1 -11.0
2014-Dec-18 23:50 5.4-11.0 Light snow grains.
2014-Dec-18 23:20 020 1 -11.0
2014-Dec-18 22:50 230 3 -11.0
2014-Dec-18 22:20 240 3 5.4-11.0 Light snow showers.
2014-Dec-18 21:50 250 4 -11.0
2014-Dec-18 21:20 230 4 -11.0
2014-Dec-18 20:50 260 3 -12.0
2014-Dec-18 20:20 240 3 -12.0
2014-Dec-18 19:50 230 5 -12.0
2014-Dec-18 19:20 250 2 5.4-12.0
2014-Dec-18 18:50 260 1 5.4-12.0
2014-Dec-18 18:20 240 3 5.4-12.0
2014-Dec-18 17:50 230 3 5.4-11.0
2014-Dec-18 17:20 270 1 5.4-12.0
2014-Dec-18 16:50 240 2 5.4-11.0
2014-Dec-18 16:20 250 4 5.4-11.0 Light snow.
2014-Dec-18 15:50 280 2 5.4-11.0 Light snow.
2014-Dec-18 15:20 240 2 5.4-11.0 Light snow.
2014-Dec-18 14:50 240 2 5.4-11.0 Light snow showers.
2014-Dec-18 14:20 250 2 5.4-12.0 Light snow showers.
2014-Dec-18 13:50 250 2 5.4-12.0 Light snow showers.
2014-Dec-18 13:20 230 3 5.4-12.0 Light snow showers.
2014-Dec-18 12:50 240 4 5.4-13.0
2014-Dec-18 12:20 250 3 5.4-13.0
2014-Dec-18 11:50 240 2 5.4-14.0
2014-Dec-18 11:20 260 2 5.4-15.0
2014-Dec-18 10:50 250 2 5.4-15.0
2014-Dec-18 10:20 250 4 5.4-15.0
2014-Dec-18 09:50 240 3 5.4-15.0
2014-Dec-18 09:20 240 4 5.4-16.0
2014-Dec-18 08:50 250 3 5.4-16.0
2014-Dec-18 08:20 240 5 5.4-16.0
2014-Dec-18 07:50 230 5 4.3-17.0
2014-Dec-18 07:20 240 3 5.4-18.0
2014-Dec-18 06:50 240 3 5.4-18.0 Light snow showers.
2014-Dec-18 06:20 240 3 -18.0
2014-Dec-18 05:50 240 3 -18.0
2014-Dec-18 05:20 230 3 -16.0
2014-Dec-18 04:50 250 2 5.4-15.0
2014-Dec-18 04:20 240 1 5.4-15.0
2014-Dec-18 03:50 5.4-15.0
2014-Dec-18 03:20 240 3 5.4-16.0
2014-Dec-18 02:50 5.4-13.0
2014-Dec-18 02:20 230 3 5.4-14.0
2014-Dec-18 01:50 230 3 5.4-15.0
2014-Dec-18 01:20 160 2 -15.0
2014-Dec-18 00:50 230 5 5.4-14.0
2014-Dec-18 00:20 5.4-14.0
2014-Dec-17 23:50 250 3 5.4-14.0
2014-Dec-17 23:20 240 1 -13.0
2014-Dec-17 22:50 -10.0
2014-Dec-17 22:20 -9.0
2014-Dec-17 21:50 230 2 -8.0
2014-Dec-17 21:20 290 3 -8.0
2014-Dec-17 20:50 340 2 5.4-6.0
2014-Dec-17 20:20 010 5 5.4-4.0
2014-Dec-17 19:50 020 5 5.4-4.0
2014-Dec-17 19:20 320 2 5.4-4.0
2014-Dec-17 18:50 340 3 5.4-3.0
2014-Dec-17 18:20 290 3 5.4-4.0
2014-Dec-17 17:50 330 2 5.4-3.0
2014-Dec-17 17:20 320 2 5.4-3.0
2014-Dec-17 16:50 340 4 5.4-2.0 Light snow.
2014-Dec-17 16:20 330 4 5.4-3.0 Light snow.
2014-Dec-17 15:50 330 4 4.9-2.0 Light snow.
2014-Dec-17 15:20 330 7 1.6-2.0 Light snow.
2014-Dec-17 14:50 320 6 0.8-2.0 Snow.
2014-Dec-17 14:20 330 6 0.7-2.0 Snow.
2014-Dec-17 13:50 320 6 1.3-2.0 Light snow.
2014-Dec-17 13:20 270 2 1.3-2.0 Light snow.
2014-Dec-17 12:50 250 3 1.3-2.0 Light snow.
2014-Dec-17 12:20 230 4 0.5-3.0 Snow.
2014-Dec-17 11:50 220 4 0.5-3.0 Snow.
2014-Dec-17 11:20 230 5 0.5-3.0 Heavy snow.
2014-Dec-17 10:50 230 5 0.3-3.0 Heavy snow.
2014-Dec-17 10:20 260 4 1.1-3.0 Light snow.
2014-Dec-17 09:50 260 3 0.8-2.0 Snow.
2014-Dec-17 09:20 250 4 1.1-2.0 Light snow.
2014-Dec-17 08:50 240 7 1.1-2.0 Light snow.
2014-Dec-17 08:20 240 6 3.2-2.0 Light snow.
2014-Dec-17 07:50 210 7 3.8-1.0 Light snow grains.
2014-Dec-17 07:20 220 6 1.8-2.0 Light snow.
2014-Dec-17 06:50 220 7 1.7-1.0 Light snow grains.
2014-Dec-17 06:20 210 5 5.4-1.0
2014-Dec-17 05:50 230 2 5.4-1.0
2014-Dec-17 05:20 160 3 5.4-2.0
2014-Dec-17 04:50 150 3 5.4-2.0
2014-Dec-17 04:20 210 2 5.4-1.0
2014-Dec-17 03:50 5.4-1.0
2014-Dec-17 03:20 170 4 5.4-1.0
2014-Dec-17 02:50 210 6 5.4-1.0
2014-Dec-17 02:20 210 5 5.4-1.0
2014-Dec-17 01:50 190 4 5.4-1.0
2014-Dec-17 01:20 190 4 4.9-1.0 Light snow grains.